Regional Weather Roundup
Issued by NWS Pendleton, OR

Home | Current Version | Previous Version | Text Only | Print | Product List | Glossary On
Versions: 1 2 3 4 5 6 7 8 9 10 11 12 13 14 15 16 17 18 19 20 21 22 23 24 25 26 27 28 29 30 31 32 33 34 35 36 37 38 39 40 41 42 43 44 45 46 47 48 49 50
924
ASUS46 KPDT 041910
RWRPDT
PENDLETON REGIONAL WEATHER ROUNDUP
NATIONAL WEATHER SERVICE PENDLETON OREGON
1200 PM PDT WED MAY 4 2016

NOTE: FAIR INDICATES FEW OR NO CLOUDS BELOW 12,000 FEET WITH NO
SIGNIFICANT WEATHER AND/OR OBSTRUCTIONS TO VISIBILITY.

# INDICATES UNOFFICIAL STATION AND DATA

WAZ520-042010-
EAST SLOPES OF WASHINGTON CASCADES

CITY            SKY/WX      TMP DP  RH  WIND    PRES   REMARKS
#CLE ELUM HS    N/A         61  50  67  N5      29.92F
#CLE ELUM 2NW   N/A         61  48  62  S2      N/A
#CLE ELUM LAKE  N/A         58  50  75  CALM    29.89S
#GLENWOOD       N/A         64  54  70  CALM    29.90S
#MANASTASH CYN  N/A         64  48  56  W3      29.93S
#NELSON 3SW     N/A         59  52  78  CALM    30.09F
#NILE           N/A         64  51  63  W1      29.16F
#RONALD 2NW     N/A         58  N/A N/A W1      29.85F
#TEANAWAY 4NE   N/A         63  57  81  SW3     N/A
#TROUT LAKE 1NE N/A         63  53  70  E3      29.89S
$$

WAZ521-042010-
SIMCOE HIGHLANDS

CITY            SKY/WX      TMP DP  RH  WIND    PRES   REMARKS
#CENTERVILLE 1SWN/A         61  51  70  CALM    29.88S
#GOLDENDALE 1NE N/A         63  41  44  SW3     N/A
#GOODNOE HILLS  N/A         66  54  65  W5      29.86R
#LYLE 6NE       N/A         59  53  80  CALM    29.89S
$$

WAZ026-042010-
KITTITAS VALLEY

CITY            SKY/WX      TMP DP  RH  WIND    PRES   REMARKS
ELLENSBURG AP   CLOUDY      73  48  41  W6      29.93F
YTC-OPS AREA    MOCLDY      65  45  48  E6      29.99F
#ELLENSBURG 3NE N/A         68  53  59  CALM    29.94S
#ELLENSBURG     N/A         74  53  48  SE3     N/A
#KITTITAS 3S    N/A         66  51  58  CALM    29.87F
#THORP 6N       N/A         62  54  75  NW7     29.91S
$$

WAZ027-042010-
YAKIMA VALLEY

CITY            SKY/WX      TMP DP  RH  WIND    PRES   REMARKS
YAKIMA AIRPORT  MOCLDY      74  44  34  S6      29.93S
YAKIMA-VAGABOND SUNNY       72  46  39  SW9     29.91F
#DONALD 2NE     N/A         73  31  21  E1      28.78S
#GRANDVIEW      N/A         69  49  49  CALM    29.90F
#MABTON         N/A         69  53  57  CALM    29.92F
#NACHES 2SW     N/A         71  53  53  SE5     29.95S
#TERRACE HTS    N/A         71  49  46  S1      29.85S
#TOPPENISH      N/A         69  50  51  CALM    29.81S
#W YAKIMA       N/A         71  50  47  SE3     29.88F
#WHITE SWAN 5E  N/A         70  52  53  NE3     29.89S
#WILEY CITY 3W  N/A         70  46  42  CALM    29.90F
$$

WAZ028-042010-
LOWER COLUMBIA BASIN...WASHINGTON

CITY            SKY/WX      TMP DP  RH  WIND    PRES   REMARKS
PASCO           MOCLDY      77  50  39  CALM    29.90F
PROSSER AWOS    N/A         72  52  49  NW7     29.94F
RICHLAND AWOS   MOCLDY      77  50  39  NW3     29.90F
#BENTON CITY    N/A         75  48  38  SW3     29.79F
#CONNELL 5N     N/A         72  53  51  SW3     29.89F
#CONNELL 5NW    N/A         72  54  53  SW2     29.86S
#ELTOPIA 6NW    N/A         72  54  53  CALM    28.90F
#KAHLOTUS       N/A         72  52  49  SE3     29.88F
#KENNEWICK 3S   N/A         76  55  48  CALM    29.87F
#PATERSON       N/A         69  54  59  W6      29.88F
#SAGEMOOR 2W    N/A         77  55  47  CALM    29.73F
#TOUCHET 2S     N/A         71  59  66  NW5     29.85F
#WEST PASCO     N/A         76  55  48  N2      29.96F
$$

WAZ029-042010-
FOOTHILLS OF THE BLUES...WASHINGTON

CITY            SKY/WX      TMP DP  RH  WIND    PRES   REMARKS
WALLA WALLA AP  MOCLDY      75  55  50  N10     29.89F
#CLYDE 6NW      N/A         71  51  49  N6      29.86F
#DAYTON SCHOOL  N/A         74  45  35  N7      29.93F
#LOWDEN 2SE     N/A         75  55  50  W5      29.85F
#PLEASANT VIEW 1N/A         74  51  44  E3      29.90F
#PRESCOTT       N/A         78  54  43  CALM    29.84F
#SUDBURY        N/A         78  N/A N/A CALM    N/A
#WHITMAN COLLEGEN/A         75  52  45  N3      29.89F
#WAITSBURG 5S   N/A         76  49  39  NE7     29.93F
#WAITSBURG 8N   N/A         79  24  13  N10     29.76S
#WHITMAN MISSIONN/A         75  55  50  CALM    29.86F
$$

WAZ030-042010-
BLUE MOUNTAINS...WASHINGTON

CITY            SKY/WX      TMP DP  RH  WIND    PRES   REMARKS
#DIXIE 5SE      N/A         69  51  53  N7      29.89F
$$

ORZ009-041-WAZ024-042010-
COLUMBIA RIVER GORGE

CITY            SKY/WX      TMP DP  RH  WIND    PRES   REMARKS
HOOD RIVER AP   CLOUDY      64  52  65  CALM    29.95R
THE DALLES AP   CLOUDY      66  52  61  N10     29.93F
#ARLINGTON AIRPON/A         65  52  63  W3      29.91F
#CELILO DOT     N/A         67  51  56  NE2     N/A
#MARYHILL 2W    N/A         63  54  72  CALM    N/A
#MOSIER 1S      N/A         61  45  56  CALM    29.94S
#MURDOCK        N/A         63  54  72  NW8     29.88F
#RUFUS DOT      N/A         65  51  60  W8      N/A

$$

ORZ510-042010-
NORTH CENTRAL OREGON

CITY            SKY/WX      TMP DP  RH  WIND    PRES   REMARKS
#ANTELOPE       N/A         61  52  72  SW3     29.73F
#COW CYN RST AREN/A         58  46  64  NE3     N/A
#DUFUR 9E       N/A         58  50  75  CALM    29.95S
#GRASS VALLEY   N/A         58  52  80  NW3     N/A
#GRASS VALLEY 1SN/A         58  53  83  CALM    29.91S
#KENT DOT       N/A         59  44  57  N3      N/A
#MAUPIN SCHOOL  N/A         65  54  68  N1      29.96F
#MORO SCHOOL    N/A         60  54  81  CALM    29.96S
#SHANIKO 5WSW   N/A         57  42  57  E2      N/A
#TYGH VALLEY 2NEN/A         63  54  72  CALM    29.89F
#WAPANITIA AIRPON/A         62  50  65  NE2     29.91F
#WASCO 5NE      N/A         61  52  72  SW3     29.92R
$$

ORZ511-042010-
CENTRAL OREGON

CITY            SKY/WX      TMP DP  RH  WIND    PRES   REMARKS
BEND AIRPORT    CLOUDY      63  45  52  CALM    29.95F
MADRAS AIRPORT  N/A         N/A N/A N/A CALM    29.98S
PRINEVILLE AP   CLOUDY      63  45  52  CALM    29.96F
REDMOND AIRPORT CLOUDY      64  43  46  CALM    29.95F
#ASHWOOD SCHOOL N/A         61  51  70  CALM    29.91F
#BEND 1SW       N/A         63  47  56  N1      N/A
#BEND-AWBREY    N/A         61  48  62  CALM    29.87F
#BEND-KIM LN    N/A         63  48  58  CALM    29.94F
#CULVER         N/A         61  48  62  N1      29.84F
#LAKE BILLY CHINN/A         63  N/A N/A CALM    30.00F
#POWELL BUTTE   N/A         64  52  65  NW3     29.84S
#PRINEVILLE 3N  N/A         62  50  65  W2      29.86F
#WARM SPRINGS   N/A         64  51  63  N2      29.92F

$$


ORZ509-042010-
EAST SLOPES OF OREGON CASCADES

CITY            SKY/WX      TMP DP  RH  WIND    PRES   REMARKS
SISTERS AWOS    N/A         61  46  58  W10     29.95S
#BLUE BOX PASS  N/A         58  N/A N/A NE3     N/A
#BLACK BUTTE RNCN/A         61  50  67  CALM    29.90R
#CAMP SHERMAN   N/A         60  46  60  CALM    29.97F
#LA PINE DOT    N/A         64  37  37  S8      N/A
#LA PINE 4NW    N/A         61  45  56  CALM    29.91S
#LAVA BUTTE DOT N/A         59  38  45  CALM    N/A
#SISTERS AIRPOR N/A         60  53  78  N2      30.17S
#SISTERS ODOT   N/A         60  N/A N/A S1      N/A
#SISTERS 3N     N/A         63  48  58  SW3     29.97S
#SUNRIVER       N/A         63  47  56  S3      29.89F
#TUMALO 3W      N/A         61  46  58  N1      29.75F
#WANOGA BUTTE D N/A         54  37  52  S6      N/A

$$

ORZ044-042010-
LOWER COLUMBIA BASIN...OREGON

CITY            SKY/WX      TMP DP  RH  WIND    PRES   REMARKS
HERMISTON       CLOUDY      73  51  46  NW9     29.91S
#BOARDMAN SCHOOLN/A         70  52  53  W7      29.91F
#BOARDMAN 8SW   N/A         69  54  59  W3      29.89
#ECHO 8SW       N/A         71  51  49  NW2     29.92F
#I-84 EX 198 DOTN/A         71  52  51  E10     N/A
#UMATILLA SCHOOLN/A         72  58  61  W6      29.93S
#UMATILLA       N/A         71  50  47  W3      29.82F
$$

ORZ507-042010-
NORTHERN FOOTHILLS OF THE BLUES

CITY            SKY/WX      TMP DP  RH  WIND    PRES   REMARKS
PENDLETON AIRPT CLOUDY      75  46  36  W13     29.91F
#ADAMS 3WNW     N/A         76  49  39  CALM    29.84S
#ATHENA         N/A         74  51  44  N2      29.86F
#CAYUSE         N/A         76  49  39  CALM    29.83S
#HELIX SCHOOL   N/A         71  53  53  NW7     29.85S
#HELIX 3N       N/A         71  53  53  N8      29.91S
#HELIX 6SW      N/A         72  53  51  NW2     29.92R
#HOLDMAN 5SE    N/A         71  51  49  CALM    29.91S
#HOLDMAN 6E     N/A         70  52  53  E6      29.67S
#M-F FERNDALE   N/A         81  55  41  CALM    29.88F
#M-F GROVE ELEM N/A         74  49  41  NE2     29.88F
#M-FREEWATER 5SEN/A         74  55  51  N1      29.90F
#PENDLETON DNTN N/A         79  48  34  NW2     29.92S
#PDT AQUATIC CTRN/A         75  48  38  NW6     29.93S
#PDT SUNRIDGE   N/A         76  49  39  NW6     29.91F
#PENDLETON 7NW  N/A         73  55  53  CALM    31.80S
#PILOT ROCK     N/A         75  46  36  CALM    29.92F
#TUTUILLA       N/A         74  52  46  CALM    29.87F
#UMAPINE 2E     N/A         76  55  48  NW3     29.86F
#WESTON SCHOOL  N/A         72  46  39  NE7     29.84F

$$

ORZ508-042010-
SOUTHERN FOOTHILLS OF THE BLUES

CITY            SKY/WX      TMP DP  RH  WIND    PRES   REMARKS
#AJAX           N/A         60  43  53  S7      27.72S
#CONDON SCHOOL  N/A         64  50  60  CALM    29.93S
#CONDON 5W      N/A         61  45  56  SE7     29.95F
#FOSSIL SCHOOL  N/A         67  43  42  SW6     29.91F
#HEPPNER EOC    N/A         70  48  46  N2      29.80S
#HEPPNER 4NE    N/A         67  48  50  W5      29.86S
#LEXINGTON 2SE  N/A         71  51  49  CALM    29.89F
#MIKKALO        N/A         66  48  52  CALM    30.05S
#OLEX 4N        N/A         65  53  65  CALM    29.92F
#RUGGS 5NE      N/A         70  46  42  NW1     30.14S
#RUGGS 2SW      N/A         68  48  49  NE5     29.87F

$$

ORZ502-503-042010-
BLUE MOUNTAINS

CITY            SKY/WX      TMP DP  RH  WIND    PRES   REMARKS
MEACHAM         CLOUDY      68  40  36  CALM    29.99
#BATTLE MTN DOT N/A         66  50  56  NE2     N/A
#GREENHORN 9SW  N/A         69  48  47  W1      26.17F
#HARDMAN 10S    N/A         61  34  36  N5      30.22S
#HEPPNER 15SE   N/A         63  44  50  W1      29.91S
#LADD CYN SMT   N/A         69  41  36  N2      N/A
#LADD CREEK ODOTN/A         67  48  50  NE3     N/A
#LONG CREEK HS  N/A         64  47  54  CALM    N/A
#N POWDER DOT   N/A         69  47  45  W1      N/A
#PIKES PEAK     N/A         66  53  63  N3      27.99S
#TOLLGATE       N/A         60  40  47  NE6     29.89F
#TROY SCHOOL    N/A         75  50  41  E2      29.70F
#UKIAH          N/A         65  48  54  CALM    29.77F
#WESTON 4E      N/A         70  53  55  N1      29.81F
$$

ORZ505-042010-
JOHN DAY BASIN

CITY            SKY/WX      TMP DP  RH  WIND    PRES   REMARKS
JOHN DAY        PTCLDY      67  45  45  CALM    29.98F
#DAYVILLE SCHOOLN/A         70  44  39  CALM    29.91F
#MITCHELL       N/A         66  48  52  CALM    30.10F
#MITCHELL 8NW   N/A         64  41  43  E1      30.05F
#MONUMENT HS    N/A         70  44  39  CALM    29.85S
#MT. VERNON 5SE N/A         65  43  45  NE1     29.94F
#SPRAY SCHOOL   N/A         71  N/A N/A CALM    N/A
#WINLOCK        N/A         70  47  44  N2      29.94F
$$

ORZ506-042010-
OCHOCO AND JOHN DAY HIGHLANDS

CITY            SKY/WX      TMP DP  RH  WIND    PRES   REMARKS
#HORSE RIDGE DO N/A         63  42  46  E8      N/A
#KEYES SMT DOT  N/A         63  41  44  NE5     N/A
#PAULINA SCHOOL N/A         66  42  42  NE1     29.22F
#PINE MTN OBS   N/A         51  41  68  SE9     N/A
#PRAIRIE CITY   N/A         70  48  46  S1      29.94F
#SENECA         N/A         63  N/A N/A N2      N/A
#SENECA 9NW     N/A         61  43  51  CALM    29.80F
$$

ORZ049-042010-
GRANDE RONDE VALLEY

CITY            SKY/WX      TMP DP  RH  WIND    PRES   REMARKS
LA GRANDE       CLOUDY      68  43  40  N6      29.96S
#COVE           N/A         67  53  61  CALM    30.00S
#COVE SCHOOL    N/A         68  49  51  CALM    29.98F
#COVE 6NW       N/A         66  48  52  CALM    29.84F
#ELGIN 3N       N/A         73  41  31  S3      29.92F
#ELGIN 1E       N/A         71  47  42  W1      N/A
#ISLAND CITY 4N N/A         58  52  80  CALM    29.99F
#LADD CYN DOT   N/A         67  47  49  NW2     N/A
#LA GRANDE ELEM N/A         68  48  49  NE2     29.97F
#UNION 1S       N/A         69  50  51  CALM    29.75F
$$

ORZ050-042010-
WALLOWA COUNTY

CITY            SKY/WX      TMP DP  RH  WIND    PRES   REMARKS
JOSEPH AIRPORT  PTCLDY      70  41  35  CALM    30.00F
#ENTERPRISE AP  N/A         49  29  46  CALM    29.93F
#ENTERPRISE HS  N/A         70  46  42  SW2     29.98F
#IMNAHA SCHOOL  N/A         73  49  43  N9      29.92F
#IMNAHA 10S     N/A         69  50  51  NE6     29.95F
#JOSEPH 3N      N/A         67  44  43  CALM    30.01F
#JOSEPH 3W      N/A         66  45  47  E3      29.85F
#LOSTINE        N/A         72  48  43  CALM    29.66F
#MT HOWARD 8000 N/A         51  29  42  S5      30.18R
#PROMISE 1S     N/A         65  49  56  W6      29.95F
#WALLOWA SCHOOL N/A         73  47  40  CALM    29.92F



$$



USA.gov is the U.S. government's official web portal to all federal, state and local government web resources and services.